Regional Weather Roundup
Issued by NWS Green Bay, WI

Home | Current Version | Previous Version | Text Only | Print | Product List | Glossary On
Versions: 1 2 3 4 5 6 7 8 9 10 11 12 13 14 15 16 17 18 19 20 21 22 23 24 25 26 27 28 29 30 31 32 33 34 35 36 37 38 39 40 41 42 43 44 45 46 47 48 49 50
000
ASUS43 KGRB 231610
RWRGRB

NORTH-CENTRAL AND NORTHEAST WISCONSIN REGIONAL WEATHER ROUNDUP
NATIONAL WEATHER SERVICE GREEN BAY WI
1100 AM CDT WED JUL 23 2014

WIZ005-009-010>012-018-019-231700-
NORTH CENTRAL WISCONSIN

CITY           SKY/WX    TMP DP  RH WIND       PRES   REMARKS
IRONWOOD       PTSUNNY   66  52  59 CALM      30.22
MANITOWISH WTR CLOUDY    63  54  73 N3        30.25S
ARBOR VITAE    CLOUDY    72  59  64 CALM      30.25S
EAGLE RIVER    PTSUNNY   64  49  59 CALM      30.25S
LAND O LAKES   CLOUDY    64  51  64 NW3       30.26F
RHINELANDER    PTSUNNY   67  52  58 VRB7      30.26S
PHILLIPS       PTSUNNY   67  56  69 NE3       30.24F
ANTIGO         SUNNY     66  51  59 N10       30.25S
TOMAHAWK       MOSUNNY   65  54  65 N6        30.25F
MERRILL        MOSUNNY   68  55  63 NE6       30.24S
$$

WIZ013-073-231700-
NORTHEAST WISCONSIN

CITY           SKY/WX    TMP DP  RH WIND       PRES   REMARKS
IRON MOUNTAIN  MOSUNNY   67  49  52 N8        30.22S
MARINETTE      MOSUNNY   66  48  52 N12G22    30.20S
OCONTO         SUNNY     69  49  50 N13G18    30.20S
$$

WIZ017-030-035>037-045-231700-
CENTRAL WISCONSIN

CITY           SKY/WX    TMP DP  RH WIND       PRES   REMARKS
MEDFORD        MOSUNNY   67  57  69 NW3       30.24F
WAUSAU         MOSUNNY   70  54  56 VRB7      30.22S
MOSINEE        PTSUNNY   70  57  64 NE8       30.25S
MARSHFIELD       N/A     72  56  57 N8        30.23S
WISC RAPIDS    SUNNY     73  55  53 VRB6      30.24S
STEVENS POINT  MOSUNNY   68  54  60 N6        30.23S
WAUPACA        SUNNY     74  50  42 NE7       30.22S
SHAWANO        SUNNY     71  50  47 NE8       30.22S
CLINTONVILLE   SUNNY     70  46  43 N9        30.21F
$$

WIZ038-039-048-051-231700-
FOX VALLEY

CITY           SKY/WX    TMP DP  RH WIND       PRES   REMARKS
NWS GREEN BAY  SUNNY     71  51  49 N10       30.19F
APPLETON       MOSUNNY   68  48  49 N8        30.21F
OSHKOSH        SUNNY     71  54  54 NE13      30.19F
FOND DU LAC    SUNNY     71  52  50 NE12      30.21S
$$

WIZ022-050-052-231700-
EAST CENTRAL WISCONSIN

CITY           SKY/WX    TMP DP  RH WIND       PRES   REMARKS
STURGEON BAY   SUNNY     64  52  63 N14G22    30.20F
MANITOWOC      SUNNY     69  51  52 N13       30.18F
SHEBOYGAN      SUNNY     71  51  49 NE13G20   30.18S
$$

LMZ563-521-522-541>543-231700-
LAKESHORE

STATION/POSITION TIME  TEMP    WIND        PRES    VSBY  WAVE
                       AIR SEA DIR/SP/G                  HT/PER
                 (UTC) (F)     (DEG/KT/KT) (MB)    (MI)  (FT/S)
SHEBOYGAN LKSHOR 1600   56      30/  6/  7 1022.6R
KEWAUNEE LKSHORE 1600   57      30/  8/ 12 1023.1F
NORTHPORT PIER   1600   61     340/ 17/ 20 1022.4S
N MID LAKE BUOY  1600   55 53  360/ 12/ 14 1021.8R         2/ 4
STURGEON BAY CG  1500   66 63  290/  7     1022.2          1
CHAMBERS ISLAND  1600   63     350/ 14/ 16 1022.7R
MENOMINEE LKSHOR 1600   64     360/ 14/ 16 1023.2S
$$


USA.gov is the U.S. government's official web portal to all federal, state and local government web resources and services.